OPS 0100 (TRANSIT 15)

Satellite information

Favourite Embed

Satellite Type and Status

PAYLOADIN ORBIT

Key statistics

Satellite OPS 0100 (TRANSIT 15) at a glance.

Uptime

21428

Days in orbit

Revolutions

≈ 13.6

Per day

Orbit

SSO

Sun Synchronous Orbit

Inclination

90.2

Latest

Satellite identification and parameters

Extended collection of information and parameters for OPS 0100 (TRANSIT 15).

Object identification

Identified? True

Debris? False

Object name: OPS 0100 (TRANSIT 15)

International designator: 1967-034A

Object number (NORAD): 2754

Object ID (CCSDS): 2754

Country: UNITED STATES OF AMERICA (US)

Current information (Y/N): Y

RCS size: LARGE

Orbital parameters

Period: 106.089 minutes

Inclination: 90.2272 deg

SMA: 7423.45 km

Apoapsis: 1059.036 km

Periapsis: 1031.593 km

RAAN: 30.7701 deg

Eccentricy: 0.00184845

Argument of periapsis: 338.9082 deg

Mean anomaly: 81.4676 deg

Mean motion: 13.57357102 rev/day

Mean motion (dot): 0.00000188 rev/day2

B* drag term: 0.00025094606 1/REarth

Two-line elements (TLE)

Creation date: Dec. 12, 2025, 10:14 a.m.

Reference frame: TEME

Reference center: EARTH

Epoch: Dec. 12, 2025, 4:11 a.m. UTC

TLE line 0: 0 OPS 0100 (TRANSIT 15)

TLE line 1: 1 02754U 67034A 25346.17476333 .00000188 00000-0 25095-3 0 9993

TLE line 2: 2 02754 90.2272 30.7701 0018485 338.9082 81.4676 13.57357102900745

Live tracking on map

Real-time ground track for satellite OPS 0100 (TRANSIT 15).

In-orbit conjunctions

There are no conjunctions computed for OPS 0100 (TRANSIT 15), at the moment. Check back to stay up to date, as we update our databases every day.

Go to all conjunctions

Associated space launch

The Transit-O series of satellites that closely followed the design of Transit 5C-1 were also called “Oscars” (Oscar is the phonetic alphabet for “O”, i. e., operational). They were also called NNS (Navy Navigation Satellite) or shortened NavSat.

OPS 0100 (TRANSIT 15) was lifted into orbit during the mission ‘Scout A | Transit-O 12’, on board a Scout A space rocket.

The launch took place on April 14, 1967, 3:25 a.m. from Space Launch Complex 5.

For more information about the launch, click the button.

Launch to space Scout A | Transit-O 12
Scout A | Transit-O 12

Agency: N/A

Status: Launch Successful

Launch date: April 14, 1967, 3:25 a.m. UTC

Rocket: Scout A

Launch pad: Space Launch Complex 5

Location: Vandenberg SFB, CA, USA

...

Latest news about this satellite

There are no fresh news available about this satellite. Check back as we update our databases every day.


Newsletter sign-up

Weekly statistics, charts and insights to help you stay on top of the space industry.